Regional Weather Roundup
Issued by NWS

Home | Current Version | Previous Version | Graphics & Text | Print | Product List | Glossary On
Versions: 1 2 3 4 5 6 7 8 9 10 11 12 13 14 15 16 17 18 19 20 21 22 23 24 25 26 27 28 29 30 31 32 33 34 35 36 37 38 39 40 41 42 43 44 45 46 47 48 49 50
357
ASUS43 KMKX 011300
RWRWI

WISCONSIN REGIONAL WEATHER ROUNDUP
NATIONAL WEATHER SERVICE MILWAUKEE/SULLIVAN WI
800 AM CDT SAT OCT 01 2016

NOTE: "FAIR" INDICATES FEW OR NO CLOUDS BELOW 12,000 FEET WITH NO
SIGNIFICANT WEATHER AND/OR OBSTRUCTIONS TO VISIBILITY.

WIZ001-002-006>008-014>016-023>028-011400-
NORTHWEST WISCONSIN

CITY           SKY/WX    TMP DP  RH WIND       PRES   REMARKS
SUPERIOR ARPT  FOG       52  52 100 E3        30.24S VSB 1/2
ASHLAND        FOG       54  54 100 VRB6      30.23F VSB 1/4
HAYWARD        CLOUDY    51  50  96 NE5       30.22S
SIREN          CLOUDY    51  50  97 E3        30.22R FOG
CUMBERLAND     MOCLDY    48  46  93 N3        30.21R
RICE LAKE      PTCLDY    51  49  95 CALM      30.21S
CHETEK         NOT AVBL
LADYSMITH      PTCLDY    51  49  94 N3        30.21S
EAU CLAIRE     MOCLDY    52  51  97 CALM      30.17R
MENOMONIE        N/A     51  50  95 N3        30.18S
NEW RICHMOND   CLEAR     49  49 100 CALM      30.20R
OSCEOLA        CLEAR     47  47 100 CALM      30.22S FOG
$$

WIZ003>005-009-010-017-018-011400-
NORTH CENTRAL WISCONSIN

CITY           SKY/WX    TMP DP  RH WIND       PRES   REMARKS
MANITOWISH WTR NOT AVBL
ARBOR VITAE    CLOUDY    52  50  93 N3        30.21S
WOODRUFF       CLOUDY    52  50  93 N3        30.21S
RHINELANDER    LGT RAIN  53  52  96 NE3       30.21S
EAGLE RIVER    CLOUDY    52  51  95 CALM      30.20F
LAND O LAKES   CLOUDY    53  50  90 N3        30.23S
PHILLIPS       CLOUDY    51  50  97 NE3       30.20S
TOMAHAWK       CLOUDY    48  47  96 CALM      30.20S
MEDFORD        CLOUDY    52  52 100 NE5       30.18S
MERRILL        CLOUDY    53  52  99 N3        30.19S
$$

WIZ029-030-035-036-043>047-011400-
CENTRAL WISCONSIN

CITY           SKY/WX    TMP DP  RH WIND       PRES   REMARKS
WAUSAU         CLOUDY    55  53  93 N3        30.15S
MOSINEE        CLOUDY    55  55 100 NE5       30.17S
MARSHFIELD     CLOUDY    57  52  83 N8        30.15S
STEVENS POINT  CLOUDY    55  55  99 NE8       30.15S
WAUPACA        CLOUDY    59  58  97 N6        30.13S
WAUTOMA        CLOUDY    58  57  97 N7        30.12F
WISC RAPIDS    CLOUDY    58  56  93 NE8       30.15S
CAMP DOUGLAS   CLOUDY    57  57 100 VRB6      30.12S
$$

WIZ011>013-019>022-031-037>040-048>050-011400-
NORTHEAST WISCONSIN

CITY           SKY/WX    TMP DP  RH WIND       PRES   REMARKS
ANTIGO         DRIZZLE   53  53  98 CALM      30.17F
SHAWANO        CLOUDY    59  55  89 N8        30.14F
OCONTO         NOT AVBL
STURGEON BAY   CLOUDY    61  57  87 NE8       30.14S
GREEN BAY      CLOUDY    60  59  96 N6        30.11F
MANITOWOC      NOT AVBL
APPLETON       CLOUDY    57  57 100 N7        30.10F
CLINTONVILLE   CLOUDY    57  55  94 N7        30.14S
OSHKOSH        CLOUDY    59  56  89 NE9       30.10S
$$

WIZ032>034-041-042-053>061-011400-
SOUTHWEST WISCONSIN

CITY           SKY/WX    TMP DP  RH WIND       PRES   REMARKS
LA CROSSE      CLOUDY    61  56  83 N3        30.13R
SPARTA         CLOUDY    57  55  94 N6        30.14R
VIROQUA        CLOUDY    56  56 100 N6        30.12R
BOSCOBEL       CLOUDY    61  58  90 N5        30.10S
PRAIRIE DU CHI CLOUDY    60  56  89 N3        30.09S
PLATTEVILLE    CLOUDY    59  59 100 N7        30.07S
$$

WIZ056-057-062-063-064-067-068-011400-
SOUTH CENTRAL WISCONSIN

CITY           SKY/WX    TMP DP  RH WIND       PRES   REMARKS
REEDSBURG      NOT AVBL
BARABOO/DELLS  CLOUDY    57  56  96 NE7       30.10S
LONE ROCK      NOT AVBL
MINERAL POINT  CLOUDY    59  59 100 N6        30.08S
MADISON        CLOUDY    59  58  96 NE9       30.08R
MIDDLETON      CLOUDY    60  60 100 NE6       30.09R
WATERTOWN      CLOUDY    58  58 100 NE6       30.07S FOG
MONROE         CLOUDY    59  57  94 NE9       30.07R
JANESVILLE     CLOUDY    61  61 100 CALM      30.05R
$$

WIZ051-052-058>065-066-070>072-011400-
SOUTHEAST WISCONSIN

CITY           SKY/WX    TMP DP  RH WIND       PRES   REMARKS
MILWAUKEE      CLOUDY    60  58  92 NE10      30.06S
WAUKESHA       CLOUDY    57  57 100 NE9       30.08S
MILWAUKEE/TIMM CLOUDY    57  55  94 NE9G18    30.07S
RACINE         CLOUDY    61  59  93 NE9       30.06S
BURLINGTON     CLOUDY    57  57  99 CALM      30.05S FOG
KENOSHA        CLOUDY    60  58  92 N6        30.04S
FOND DU LAC    CLOUDY    59  57  93 NE9       30.10S
SHEBOYGAN      CLOUDY    58  56  93 NE12      30.09S
WEST BEND      CLOUDY    68  68 100 NE8       30.08S FOG
JUNEAU         CLOUDY    58  56  96 N7        30.09S
$$

LSZ147-162-011400-
LAKE SUPERIOR

STATION/POSITION TIME  TEMP    WIND        PRES    WAVE
                       AIR SEA DIR/SP/G            HT/PER
                 (UTC) (F)     (DEG/KT/KT) (MB)    (FT/S)
W MID LAKE BUOY  1150   57 56   30/ 10/ 10 1023.4R   1/ 4
DEVILS ISLAND    1200   54      70/  8/  9 1024.0R
SAXON HARBOR     1200   51     180/  3/  4 1023.4
$$

LMZ867-665-643>646-011400-
LAKE MICHIGAN

STATION/POSITION TIME  TEMP    WIND        PRES    WAVE
                       AIR SEA DIR/SP/G            HT/PER
                 (UTC) (F)     (DEG/KT/KT) (MB)    (FT/S)
CHAMBERS ISLAND  1200   62      30/ 10/ 14 1020.3F
S GREEN BAY BUOY 1200   62 62   50/ 12/ 16 1019.6F
N MID LAKE BUOY  1150   63 64   80/ 16/ 19 1020.4F   4/ 5
NORTHPORT PIER   1220   63      50/ 11/ 24 1020.3F
SISTER BAY       1208   62      40/  4/  8   N/A
KEWAUNEE LAKESHO 1200   59      80/ 11/ 15 1019.3F
SHEBOYGAN LAKESH 1200   58      40/ 13/ 14 1018.6S
PORT WASHINGTON  1200   59      50/  9/ 13 1019.0F
ATWATER BUOY     1200   59 57   30/ 16/ 19 1017.5F
MILWAUKEE LAKESH 1210   58      30/ 13/ 14   N/A
S MID LAKE BUOY  1150   62 67   60/ 14/ 16 1016.4F   3/ 6
KENOSHA   LAKESH 1200   60     340/  8/  9 1016.9F
$$

TC  - TEMPERATURE IN CELSIUS
VSB - VISIBILITY IN STATUTE MILES
WCI - WIND CHILL INDEX
HX  - HEAT INDEX





USA.gov is the U.S. government's official web portal to all federal, state and local government web resources and services.